Regional Weather Roundup
Issued by NWS

Home | Current Version | Previous Version | Text Only | Print | Product List | Glossary On
Versions: 1 2 3 4 5 6 7 8 9 10 11 12 13 14 15 16 17 18 19 20 21 22 23 24 25 26 27 28 29 30 31 32 33 34 35 36 37 38 39 40 41 42 43 44 45 46 47 48 49 50
000
ASUS46 KPQR 071310
RWROR

OREGON REGIONAL WEATHER ROUNDUP
NATIONAL WEATHER SERVICE PORTLAND OR
500 AM PST SUN FEB 07 2016

NOTE: "FAIR" INDICATES FEW OR NO CLOUDS BELOW 12,000 FEET WITH
NO SIGNIFICANT WEATHER AND/OR OBSTRUCTIONS TO VISIBILITY.

ORZ001>013-071400-
NORTHWEST OREGON


CITY           SKY/WX    TMP DP  RH WIND       PRES   REMARKS
ASTORIA        CLOUDY    45  41  86 E7        30.45R
NEWPORT        CLOUDY    48  46  93 E8        30.46S
PORTLAND       CLOUDY    44  41  89 CALM      30.51S
VANCOUVER WA   CLOUDY    44  41  89 CALM      30.50F
SCAPPOOSE      CLOUDY    43  40  89 CALM      30.50F
HILLSBORO      CLOUDY    42  40  92 CALM      30.49S FOG
AURORA         CLOUDY    45  43  93 N6        30.49F
MCMINNVILLE    CLOUDY    46  42  86 CALM      30.50S
SALEM          CLOUDY    47  42  83 CALM      30.48S
CORVALLIS      CLOUDY    46  43  87 E5        30.49R
EUGENE         FOG       47  45  93 NE3       30.48S VSB 3/4
$$

ORZ021-028-071400-
SOUTHWEST OREGON


CITY           SKY/WX    TMP DP  RH WIND       PRES   REMARKS
NORTH BEND     CLOUDY    48  48 100 SE5       30.44S VSB 3/4
BROOKINGS      CLEAR     48  47  96 CALM      30.40S
ROSEBURG       CLOUDY    49  48  97 CALM      30.46S
SEXTON SUMMIT  LGT RAIN  44  40  85 SE12      30.44S
MEDFORD        CLEAR     40  37  89 CALM      30.48S
$$

ORZ014>016-041-071400-
COLUMBIA GORGE


CITY           SKY/WX    TMP DP  RH WIND       PRES   REMARKS
TROUTDALE      CLOUDY    46  37  71 E13       30.50F
THE DALLES     CLOUDY    38  33  82 CALM      30.58R
$$

ORZ029>031-041-044-049-050-061>064-502-503-505>511-071400-
EASTERN OREGON


CITY           SKY/WX    TMP DP  RH WIND       PRES   REMARKS
REDMOND        PTCLDY    28  26  92 CALM      30.48R
BEND           PTCLDY    32  30  93 CALM      30.49R
PRINEVILLE     PTCLDY    30  28  93 CALM      30.49R
KLAMATH FALLS  CLEAR     31  29  92 NE6       30.50R WCI  25
LAKEVIEW       CLEAR     23  19  86 N5        30.52R WCI  17
HERMISTON      CLEAR     30  27  88 CALM      30.56R
PENDLETON      CLEAR     33  27  78 SE7       30.52R WCI  27
JOHN DAY       PTCLDY    35  32  88 E6        30.51R WCI  30
MEACHAM        PTCLDY    24  21  88 CALM      30.49R
LA GRANDE      CLOUDY    32  25  74 CALM      30.52R
BAKER CITY     MOCLDY    18  17  96 CALM      30.54R
BURNS          PTCLDY    19  16  88 N5        30.51R WCI  12
ROME             N/A     32  27  81 S8        30.49S WCI  25
ONTARIO        PTCLDY    27  23  85 CALM      30.58R
$$



USA.gov is the U.S. government's official web portal to all federal, state and local government web resources and services.